Lid_Strength_Index
0 0 -0 -1 -0 -0 -0 -1 -1 -1 -1 -1 -1 -1 -1 -1 -1 -2 -2 -2 -2 -2 -2 -2 -2 -2 -1 -1 -1 -1 -0 -1
0 0 0 0 -0 -0 -0 -0 -0 -1 -1 -1 -1 -1 -1 -1 -1 -2 -2 -2 -2 -2 -1 -1 -2 -2 -1 -1 -1 -1 -1 -1
0 0 1 -0 -0 -0 -1 -1 -1 -1 -1 -1 -0 0 1 1 -1 -1 -1 -1 -1 -1 -1 -1 -1 -1 -1 -1 -1 -1 -1 -1
1 0 0 -0 -0 -0 -0 -0 -0 -0 -0 0 0 1 1 0 -0 -1 -1 -1 -1 -0 -1 -1 -1 -1 -1 -1 -1 -0 -1 -1
1 1 0 -0 0 0 -0 -0 1 0 1 2 1 2 2 2 2 1 0 -1 1 1 0 0 0 -1 -1 -1 -1 -0 -0 -1
1 1 1 0 0 0 0 1 1 1 2 2 2 3 3 3 2 2 2 1 1 2 1 1 1 -0 -0 -0 0 1 0 -0
1 1 1 1 1 0 1 1 1 1 2 2 3 3 3 1 2 3 3 1 1 2 2 2 2 1 1 1 2 1 0 1
1 2 1 1 1 1 1 1 2 2 2 2 3 3 2 2 2 3 3 1 1 2 2 2 3 2 2 1 1 1 2 2
2 2 1 1 1 2 2 2 3 2 3 2 1 1 1 2 3 4 3 1 2 2 3 3 3 3 3 2 2 3 3 4
1 1 1 1 2 2 2 3 3 3 3 3 1 1 2 3 4 4 2 1 2 3 3 3 3 3 3 4 4 4 4 4
1 1 2 2 3 3 3 3 3 4 4 2 1 1 2 3 4 3 1 2 2 3 3 3 3 4 4 4 4 5 5 5
2 1 1 2 2 3 4 3 3 4 3 1 1 1 1 2 3 1 0 2 3 3 4 4 3 3 4 5 5 5 5 6
2 2 2 2 2 3 4 2 3 3 2 2 1 1 1 2 1 0 0 2 3 4 4 4 5 5 6 7 9 7 7 8
3 2 2 2 1 1 2 1 2 1 1 2 1 1 1 1 0 0 0 1 3 4 5 6 6 5 6 8 10 9 9 9
3 2 2 1 1 2 3 2 1 2 2 1 1 1 0 1 1 0 1 1 3 4 5 6 7 6 6 8 11 11 11 10
3 2 1 1 1 1 2 2 3 2 1 1 1 0 0 0 0 1 2 2 3 4 5 5 5 6 8 7 9 10 11 12
3 2 1 1 1 1 2 2 2 1 1 2 1 0 0 0 0 1 2 2 3 4 5 6 5 6 7 9 10 11 10 12
3 3 2 2 1 1 2 2 2 2 2 2 1 1 1 1 1 2 2 2 3 4 5 6 6 6 7 8 9 10 11 12
3 3 3 2 2 1 1 2 2 2 2 2 2 2 2 2 2 3 3 2 3 4 5 6 7 7 7 7 8 8 9 9
3 4 3 2 2 2 1 1 1 1 1 1 1 1 1 2 2 3 3 3 3 4 5 6 6 7 7 7 7 7 8 8